Price, UT

12:58 AM MST on December 13, 2017 (GMT -0700)
Carbon County

Weather History for KPUC - February, 2014

Change the Weather History Date:

Saturday, February 15, 2014

  Actual Average Record
Temperature  
Mean Temperature 47 °F -  
Max Temperature 57 °F 37 °F 58 °F (1971)
Min Temperature 37 °F 20 °F 7 °F (2001)
Degree Days  
Heating Degree Days 18    
Moisture  
Dew Point 28 °F    
Average Humidity 50    
Maximum Humidity 70    
Minimum Humidity 28    
Precipitation  
Precipitation 0.00 in - - ()
Sea Level Pressure  
Sea Level Pressure 30.03 in    
Wind  
Wind Speed 7 mph (ENE)    
Max Wind Speed 14 mph    
Max Gust Speed -    
Visibility 10 miles    
Events      
Averages and records for this station are not official NWS values.
T = Trace of Precipitation, MM = Missing Value Source: NWS Daily Summary

Daily Weather History Graph

Daily Weather History Graph

Search for Another Location

Airport or City:

Trip Planner

Search our weather history database for the weather conditions in past years. The results will help you decide how hot, cold, wet, or windy it might be!

Date:

Astronomy

Feb. 15, 2014 Rise Set
Actual Time 7:15 AM MST 5:59 PM MST
Civil Twilight 6:47 AM MST 6:27 PM MST
Nautical Twilight 6:16 AM MST 6:58 PM MST
Astronomical Twilight 5:44 AM MST 7:30 PM MST
Moon 7:02 PM MST (2/15) 7:16 AM MST (2/15)
Length of Visible Light 11h 39m
Length of Day
10h 44m
Waxing Gibbous, 99% of the Moon is Illuminated
Feb 15
Waxing Gibbous
Feb 22
Last Quarter
Mar 1
New
Mar 8
First Quarter
Mar 16
Full

Hourly Weather History & Observations

Time (MST) Temp. Windchill Dew Point Humidity Pressure Visibility Wind Dir Wind Speed Gust Speed Precip Events Conditions
12:53 AM 37.9 °F 32.7 °F 28.9 °F 70% 30.04 in 10.0 mi NE 6.9 mph - N/A   Clear
1:53 AM 39.0 °F 33.4 °F 28.9 °F 67% 30.02 in 10.0 mi NNE 8.1 mph - N/A   Clear
2:53 AM 37.9 °F 32.1 °F 28.0 °F 68% 30.03 in 10.0 mi NNE 8.1 mph - N/A   Clear
3:53 AM 37.9 °F 34.4 °F 28.9 °F 70% 29.99 in 10.0 mi ENE 4.6 mph - N/A   Clear
4:53 AM 41.0 °F 36.4 °F 30.0 °F 65% 30.00 in 10.0 mi East 6.9 mph - N/A   Partly Cloudy
5:53 AM 41.0 °F 35.8 °F 30.0 °F 65% 30.03 in 10.0 mi NE 8.1 mph - N/A   Mostly Cloudy
6:53 AM 46.0 °F - 28.9 °F 51% 30.01 in 10.0 mi Calm Calm - N/A   Mostly Cloudy
7:53 AM 42.1 °F 40.2 °F 28.9 °F 60% 30.06 in 10.0 mi NE 3.5 mph - N/A   Clear
8:53 AM 48.9 °F - 28.9 °F 46% 30.06 in 10.0 mi Calm Calm - N/A   Clear
9:53 AM 57.0 °F - 24.1 °F 28% 30.03 in 10.0 mi West 11.5 mph - N/A   Clear
10:53 AM 54.0 °F - 30.9 °F 41% 30.03 in 10.0 mi South 6.9 mph - N/A   Clear
11:53 AM 54.0 °F - 32.0 °F 43% 30.05 in 10.0 mi SSE 8.1 mph - N/A   Clear
12:53 PM 55.9 °F - 30.9 °F 39% 30.05 in 10.0 mi ESE 11.5 mph - N/A   Clear
1:53 PM 55.9 °F - 28.9 °F 36% 30.03 in 10.0 mi ESE 11.5 mph - N/A   Clear
2:53 PM 55.9 °F - 27.0 °F 33% 30.03 in 10.0 mi East 11.5 mph - N/A   Clear
3:53 PM 54.0 °F - 28.9 °F 38% 30.04 in 10.0 mi East 13.8 mph - N/A   Clear
4:53 PM 53.1 °F - 30.0 °F 41% 30.02 in 10.0 mi East 9.2 mph - N/A   Clear
5:53 PM 48.9 °F - 28.9 °F 46% 30.04 in 10.0 mi ENE 6.9 mph - N/A   Clear
6:53 PM 46.0 °F 42.5 °F 26.1 °F 46% 30.05 in 10.0 mi ENE 6.9 mph - N/A   Clear
7:53 PM 45.0 °F 40.1 °F 27.0 °F 49% 30.06 in 10.0 mi ENE 9.2 mph - N/A   Clear
8:53 PM 44.1 °F 40.1 °F 26.1 °F 49% 30.04 in 10.0 mi ENE 6.9 mph - N/A   Clear
9:53 PM 42.1 °F 37.7 °F 25.0 °F 51% 30.01 in 10.0 mi North 6.9 mph - N/A   Clear
10:53 PM 42.1 °F 39.2 °F 26.1 °F 53% 30.00 in 10.0 mi East 4.6 mph - N/A   Clear
11:53 PM 41.0 °F - 26.1 °F 55% 29.98 in 10.0 mi Calm Calm - N/A   Clear